[[{"header":{"parameterUnit":"m.s-1","parameterCategory":1,"la1":30.2991,"la2":30.254,"lo1":-89.0895,"lo2":-89.0444,"dy":0.0017,"dx":0.0017,"nx":28,"ny":28,"refTime":"2025-11-25T03:00:00:Z","depth":0,"parameterNumber":2,"parameterNumberName":"U-component_of_WINDS"},"data":[0,0,0,0,0,0,0,0,0,0,0,0,0,0,0,0,0,0,0,0,0,0,0,0,0,0,0,0,0,0,0,0,0,0,0,0,0,0,0,0,0,0,0,0,0,0,0,0,0,0,0,0,0,0,0,0,0,0,-1.2778,-1.2778,0,-1.2731,-1.2731,-1.273,-1.2712,-1.2713,-1.2713,-1.2713,-1.2663,-1.2661,-1.266,0,0,0,0,0,0,0,0,0,0,0,0,0,-1.2852,-1.285,-1.2778,-1.2778,-1.2777,-1.2731,-1.2731,-1.273,-1.2712,-1.2713,-1.2713,-1.2713,-1.2663,-1.2662,-1.266,0,0,0,0,0,0,0,0,0,0,0,0,0,-1.2814,-1.285,-1.2778,-1.2763,-1.2761,-1.2731,-1.2731,-1.273,-1.2712,-1.2713,-1.2713,-1.2713,-1.2664,-1.2662,-1.266,-1.2642,0,0,-1.2653,-1.2652,0,0,0,0,0,0,0,0,-1.2816,-1.2811,-1.2766,-1.2764,-1.2762,-1.2728,-1.2738,-1.27,-1.2712,-1.2731,-1.2713,-1.2713,-1.2684,-1.268,-1.2671,-1.2639,-1.2637,-1.2653,-1.2651,-1.265,-1.265,0,0,0,0,0,0,0,-1.2819,-1.2813,-1.276,-1.2765,-1.2763,-1.2758,-1.2753,-1.2731,-1.2707,-1.2729,-1.2728,-1.2723,-1.2683,-1.2673,-1.267,-1.2636,-1.2653,-1.2651,-1.2649,-1.2649,-1.2588,-1.2587,0,0,0,0,0,0,-1.2824,-1.2815,-1.2761,-1.2758,-1.279,-1.2756,-1.2751,-1.2739,-1.2707,-1.2702,-1.2722,-1.2722,-1.2677,-1.2672,-1.2668,-1.2645,-1.265,-1.2648,-1.2647,-1.2588,-1.2588,-1.2587,0,0,0,0,0,0,-1.2826,-1.2819,-1.2763,-1.2786,-1.2779,-1.2755,-1.2741,-1.2737,-1.2727,-1.2702,-1.2697,-1.2717,-1.2677,-1.2671,-1.2648,-1.2643,-1.2647,-1.2645,-1.2588,-1.2588,-1.2588,-1.2598,0,0,0,0,0,0,-1.2828,-1.282,-1.2813,-1.2786,-1.2778,-1.2745,-1.2741,-1.2736,-1.2724,-1.2723,-1.2695,-1.2691,-1.2677,-1.2652,-1.2646,-1.264,-1.2644,-1.2589,-1.2588,-1.2588,-1.2598,-1.2598,-1.2598,0,0,0,0,0,-1.283,-1.2818,-1.2813,-1.2806,-1.2769,-1.2744,-1.2739,-1.2724,-1.2724,-1.2716,-1.27,-1.2692,-1.2645,-1.265,-1.2643,-1.2636,-1.2589,-1.2588,-1.2588,-1.2598,-1.2598,-1.2598,0,0,0,0,0,0,-1.2844,-1.2814,-1.2808,-1.2786,-1.2768,-1.2742,-1.2732,-1.2724,-1.2705,-1.2705,-1.2685,-1.2679,-1.2658,-1.2645,-1.2651,-1.2617,-1.2616,-1.2614,-1.2626,-1.2626,-1.2626,-1.2629,-1.2642,0,0,0,0,0,-1.2844,-1.2827,-1.2802,-1.2785,-1.2776,-1.2756,-1.2745,-1.2734,-1.2714,-1.2706,-1.2688,-1.2669,-1.265,-1.2637,-1.2618,-1.2597,-1.259,-1.2588,-1.2588,-1.2589,-1.2587,-1.2574,-1.2573,-1.2585,-1.2585,-1.2585,0,0,-1.2845,-1.2826,-1.2817,-1.2787,-1.2772,-1.2755,-1.2749,-1.2731,-1.2718,-1.2703,-1.2681,-1.2667,-1.2644,-1.2622,-1.2612,-1.2611,-1.2582,-1.2588,-1.2588,-1.2586,-1.2573,-1.2572,-1.2571,-1.2585,-1.2585,-1.2585,0,0,-1.2837,-1.2821,-1.2806,-1.2791,-1.2768,-1.2754,-1.2751,-1.2725,-1.2716,-1.2693,-1.2682,-1.2666,-1.2633,-1.2617,-1.2605,-1.2592,-1.2584,-1.2586,-1.2586,-1.2574,-1.2573,-1.2572,-1.2567,-1.2565,-1.2585,-1.2585,-1.2585,0,-1.284,-1.2814,-1.2798,-1.2781,-1.2768,-1.2755,-1.2739,-1.2725,-1.2697,-1.2688,-1.2688,-1.2647,-1.263,-1.2604,-1.2601,-1.2592,-1.2587,-1.2589,-1.2574,-1.2573,-1.2572,-1.2567,-1.2565,-1.2585,-1.2585,-1.2585,-1.2585,0,-1.2819,-1.2801,-1.2791,-1.2765,-1.2751,-1.2735,-1.2716,-1.2704,-1.2696,-1.2682,-1.2659,-1.264,-1.2616,-1.2609,-1.26,-1.2582,-1.2582,-1.2578,-1.2577,-1.2572,-1.2567,-1.2565,-1.2586,-1.2586,-1.2586,-1.2586,0,0,-1.2817,-1.2783,-1.278,-1.2768,-1.2742,-1.2728,-1.2711,-1.2688,-1.2678,-1.266,-1.2644,-1.2618,-1.2614,-1.26,-1.2589,-1.2579,-1.257,-1.2576,-1.2575,-1.2575,-1.2548,-1.2551,-1.2549,-1.2564,-1.2564,-1.2564,-1.255,0,-1.2805,-1.2774,-1.276,-1.2735,-1.2718,-1.2706,-1.2691,-1.2674,-1.2661,-1.2644,-1.263,-1.2611,-1.2608,-1.26,-1.2589,-1.2573,-1.2564,-1.2574,-1.2549,-1.2549,-1.2555,-1.2546,-1.2549,-1.2537,-1.2548,-1.2548,-1.2547,0,-1.2787,-1.2769,-1.2743,-1.2719,-1.2712,-1.2699,-1.2677,-1.2662,-1.2642,-1.2633,-1.2618,-1.2608,-1.2589,-1.259,-1.2563,-1.2571,-1.256,-1.2551,-1.255,-1.2546,-1.2547,-1.2542,-1.2533,-1.2531,-1.2544,-1.2544,-1.2545,0,-1.2788,-1.2757,-1.2737,-1.2727,-1.27,-1.2691,-1.2679,-1.2659,-1.2647,-1.2628,-1.262,-1.2599,-1.2588,-1.2572,-1.2556,-1.2558,-1.2531,-1.253,-1.2523,-1.2523,-1.2517,-1.2517,-1.2505,-1.2511,-1.2511,-1.2511,-1.2511,0,-1.2776,-1.276,-1.2737,-1.2725,-1.2707,-1.2691,-1.2674,-1.2661,-1.2643,-1.2628,-1.2616,-1.2602,-1.2582,-1.2566,-1.2553,-1.2533,-1.2528,-1.252,-1.2517,-1.2521,-1.2522,-1.2513,-1.2513,-1.2511,-1.2511,-1.2511,-1.2511,0,-1.2773,-1.2757,-1.2735,-1.2711,-1.2704,-1.2692,-1.2671,-1.2659,-1.2646,-1.2627,-1.2621,-1.2601,-1.2581,-1.2564,-1.2537,-1.2529,-1.2508,-1.2504,-1.2515,-1.2513,-1.2506,-1.2507,-1.2487,-1.2483,-1.2493,-1.2493,-1.2493,0,-1.2766,-1.2754,-1.2728,-1.2718,-1.2706,-1.2689,-1.2676,-1.2661,-1.2648,-1.2625,-1.2615,-1.2594,-1.2577,-1.2545,-1.2527,-1.2507,-1.2502,-1.2497,-1.2499,-1.2504,-1.2502,-1.2502,-1.2501,-1.2497,-1.2497,-1.2497,-1.2497,0,-1.2755,-1.2748,-1.2731,-1.2711,-1.2697,-1.268,-1.2663,-1.2655,-1.2636,-1.2623,-1.2602,-1.2589,-1.2562,-1.2542,-1.252,-1.2507,-1.2498,-1.2496,-1.2493,-1.2497,-1.2503,-1.2499,-1.2514,-1.2497,-1.2497,-1.2497,-1.2497,-1.2497,-1.2749,-1.2738,-1.2718,-1.27,-1.2686,-1.267,-1.2658,-1.2643,-1.2626,-1.2604,-1.2595,-1.2575,-1.2555,-1.2525,-1.2512,-1.2495,-1.2494,-1.249,-1.2488,-1.2487,-1.2488,-1.2507,-1.2491,-1.2491,-1.2491,-1.2491,-1.2491,0,-1.2737,-1.2724,-1.2707,-1.2685,-1.267,-1.2664,-1.2646,-1.2634,-1.2616,-1.2598,-1.2582,-1.2558,-1.2539,-1.252,-1.2499,-1.2489,-1.2485,-1.2484,-1.2484,-1.2481,-1.249,-1.2495,-1.2488,-1.2488,-1.2488,-1.2488,-1.2488,-1.2488,-1.2729,-1.2709,-1.27,-1.2673,-1.266,-1.264,-1.263,-1.2616,-1.2602,-1.2577,-1.256,-1.2549,-1.2531,-1.2509,-1.249,-1.2485,-1.2478,-1.2478,-1.2472,-1.248,-1.2481,-1.2481,-1.2485,-1.2477,-1.2477,-1.2464,-1.2464,-1.2464]},{"header":{"parameterUnit":"m.s-1","parameterCategory":1,"la1":30.2991,"la2":30.254,"lo1":-89.0895,"lo2":-89.0444,"dy":0.0017,"dx":0.0017,"nx":28,"ny":28,"refTime":"2025-11-25T03:00:00:Z","depth":0,"parameterNumber":3,"parameterNumberName":"V-component_of_WINDS"},"data":[0,0,0,0,0,0,0,0,0,0,0,0,0,0,0,0,0,0,0,0,0,0,0,0,0,0,0,0,0,0,0,0,0,0,0,0,0,0,0,0,0,0,0,0,0,0,0,0,0,0,0,0,0,0,0,0,0,0,6.4189,6.4189,0,6.4191,6.4191,6.4191,6.4104,6.4101,6.4099,6.4097,6.4098,6.41,6.4102,0,0,0,0,0,0,0,0,0,0,0,0,0,6.4108,6.411,6.4189,6.4189,6.4189,6.4191,6.4191,6.4191,6.4104,6.4101,6.4099,6.4096,6.4097,6.41,6.4102,0,0,0,0,0,0,0,0,0,0,0,0,0,6.413,6.411,6.4189,6.4146,6.4142,6.4191,6.4191,6.4191,6.4105,6.4101,6.4098,6.4095,6.4096,6.41,6.4103,6.4193,0,0,6.4113,6.4114,0,0,0,0,0,0,0,0,6.4129,6.4133,6.4152,6.4149,6.4144,6.4144,6.4163,6.4192,6.4106,6.4119,6.4097,6.4093,6.4116,6.4117,6.4125,6.4193,6.4193,6.4113,6.4115,6.4117,6.4117,0,0,0,0,0,0,0,6.4127,6.4132,6.419,6.4152,6.4148,6.4126,6.4125,6.4168,6.4137,6.4117,6.4111,6.4113,6.4113,6.4122,6.4125,6.4193,6.4113,6.4116,6.4118,6.4119,6.4338,6.4341,0,0,0,0,0,0,6.4132,6.4132,6.4189,6.419,6.4128,6.413,6.413,6.4147,6.4136,6.4131,6.4116,6.4109,6.4119,6.4121,6.4124,6.4231,6.4116,6.412,6.4121,6.4334,6.4338,6.4343,0,0,0,0,0,0,6.4131,6.4138,6.4189,6.4159,6.4164,6.4135,6.4156,6.4149,6.4158,6.4135,6.4129,6.4131,6.4116,6.412,6.4177,6.423,6.4121,6.4124,6.4329,6.4335,6.4341,6.4444,0,0,0,0,0,0,6.4129,6.4138,6.4172,6.416,6.4166,6.4243,6.4159,6.4152,6.4165,6.4155,6.4148,6.4143,6.4113,6.4173,6.4181,6.4232,6.4127,6.4324,6.4332,6.4339,6.4436,6.4453,6.4467,0,0,0,0,0,6.4126,6.42,6.4174,6.4181,6.4208,6.4246,6.4249,6.4214,6.4169,6.4203,6.4188,6.4143,6.4223,6.418,6.4187,6.4241,6.4321,6.433,6.4338,6.4429,6.445,6.4467,0,0,0,0,0,0,6.4216,6.4197,6.4168,6.4241,6.4246,6.4231,6.4272,6.4236,6.4253,6.4244,6.4199,6.4198,6.4263,6.4258,6.421,6.4329,6.4264,6.4275,6.4331,6.435,6.4365,6.4365,6.4129,0,0,0,0,0,6.4245,6.4278,6.4259,6.4325,6.4329,6.4301,6.4316,6.4289,6.4292,6.4293,6.4282,6.4287,6.4313,6.4331,6.4353,6.4435,6.4433,6.4476,6.4492,6.4504,6.4514,6.4559,6.4579,6.4371,6.4371,6.4371,0,0,6.4304,6.4298,6.4321,6.4343,6.4344,6.4379,6.4303,6.4343,6.4369,6.4299,6.4353,6.4346,6.4348,6.4419,6.4449,6.4416,6.4571,6.4515,6.4526,6.4529,6.457,6.459,6.4607,6.4377,6.4376,6.4375,0,0,6.443,6.4428,6.4484,6.4487,6.4489,6.447,6.4484,6.4475,6.4468,6.4522,6.4471,6.4501,6.4547,6.4551,6.4559,6.469,6.465,6.4699,6.478,6.4825,6.4841,6.4855,6.4904,6.4921,6.4708,6.4709,6.4709,0,6.4502,6.4554,6.4516,6.4561,6.4573,6.4513,6.457,6.4574,6.4584,6.4594,6.4556,6.4614,6.4611,6.4683,6.4715,6.4723,6.4738,6.4699,6.4842,6.4856,6.4869,6.4914,6.4932,6.4715,6.4714,6.4713,6.4713,0,6.4644,6.4681,6.4726,6.4739,6.4755,6.4806,6.4777,6.4798,6.4771,6.4756,6.4813,6.4808,6.4829,6.4844,6.4816,6.4913,6.4893,6.485,6.4783,6.4895,6.4937,6.4954,6.4723,6.4721,6.4719,6.4718,0,0,6.4825,6.4819,6.4836,6.4843,6.4842,6.487,6.4918,6.4941,6.4961,6.497,6.501,6.5052,6.5013,6.5022,6.4995,6.5033,6.514,6.4985,6.4985,6.5016,6.5248,6.5281,6.5302,6.5113,6.5116,6.5119,6.5248,0,6.4948,6.5031,6.5001,6.5086,6.512,6.5066,6.5108,6.5113,6.5101,6.5128,6.5115,6.5146,6.5091,6.5096,6.5132,6.5119,6.5186,6.5109,6.5151,6.5153,6.5153,6.5324,6.5358,6.5481,6.5264,6.5267,6.5269,0,6.5103,6.5121,6.521,6.5207,6.522,6.5259,6.5278,6.5305,6.531,6.5299,6.5311,6.5276,6.5324,6.5258,6.5324,6.5273,6.5288,6.5284,6.5288,6.5291,6.5218,6.5332,6.5518,6.5538,6.5294,6.5292,6.529,0,6.5228,6.5274,6.5335,6.5341,6.5338,6.5367,6.5367,6.5369,6.5385,6.5402,6.5412,6.5434,6.5446,6.5464,6.5437,6.5391,6.5507,6.5438,6.55,6.5501,6.5527,6.5525,6.5719,6.5535,6.5535,6.5535,6.5534,0,6.537,6.5427,6.5391,6.5428,6.5491,6.5456,6.5519,6.5513,6.5515,6.555,6.5503,6.5537,6.5498,6.5528,6.5507,6.5566,6.5571,6.5564,6.5558,6.5569,6.557,6.5578,6.5569,6.5539,6.5538,6.5537,6.5537,0,6.552,6.5498,6.5561,6.5554,6.5554,6.5601,6.5594,6.5629,6.5614,6.566,6.5668,6.5646,6.568,6.5654,6.5686,6.5672,6.575,6.5731,6.5749,6.5744,6.5807,6.5803,6.6014,6.604,6.5839,6.5841,6.5842,0,6.5612,6.5655,6.5654,6.5675,6.5679,6.5713,6.573,6.5697,6.5717,6.5727,6.5761,6.5791,6.5813,6.5869,6.5856,6.5881,6.5863,6.5936,6.5866,6.5877,6.5866,6.5864,6.5869,6.595,6.5952,6.5954,6.5956,0,6.5778,6.5766,6.5793,6.5818,6.5841,6.5858,6.5871,6.5891,6.5858,6.5883,6.5918,6.5935,6.597,6.6001,6.6021,6.6021,6.5984,6.5978,6.5993,6.6005,6.6015,6.6012,6.5788,6.5973,6.5971,6.597,6.5969,6.5968,6.5903,6.594,6.5946,6.5979,6.5986,6.6,6.6033,6.6024,6.6053,6.6079,6.6058,6.61,6.6106,6.613,6.6135,6.6167,6.6137,6.616,6.6166,6.6172,6.6182,6.6009,6.6171,6.617,6.617,6.6169,6.6169,0,6.6068,6.607,6.6101,6.6122,6.6149,6.6112,6.6126,6.615,6.6188,6.6197,6.6221,6.6262,6.6293,6.6283,6.631,6.6338,6.6321,6.6346,6.6344,6.6345,6.6206,6.6191,6.6359,6.6359,6.6359,6.6359,6.6359,6.6359,6.6157,6.6219,6.6208,6.6273,6.6274,6.6316,6.6327,6.6341,6.6348,6.6397,6.6422,6.6416,6.6418,6.6445,6.6472,6.6468,6.648,6.6512,6.6502,6.6373,6.6354,6.6336,6.6322,6.6515,6.6515,6.6638,6.6639,6.664]}]]